Time,TemperatureF,DewpointF,PressureIn,WindDirection,WindDirectionDegrees,WindSpeedMPH,WindSpeedGustMPH,Humidity,HourlyPrecipIn,Conditions,Clouds,dailyrainin,SoftwareType,DateUTC
2013-11-23 00:03:00,64.3,61.7,30.17,ENE,68,0.0,0.0,91,0.00,,,0.00,WUHU216HW,2013-11-23 05:03:00,
2013-11-23 00:08:00,64.3,61.7,30.16,ENE,68,0.0,0.0,91,0.00,,,0.00,WUHU216HW,2013-11-23 05:08:00,
2013-11-23 00:13:00,64.3,61.9,30.16,ENE,68,0.0,0.0,92,0.00,,,0.00,WUHU216HW,2013-11-23 05:13:00,
2013-11-23 00:18:00,64.3,61.9,30.16,ENE,68,0.0,0.0,92,0.00,,,0.00,WUHU216HW,2013-11-23 05:18:00,
2013-11-23 00:23:00,64.1,61.7,30.16,ENE,68,0.0,0.0,92,0.00,,,0.00,WUHU216HW,2013-11-23 05:23:00,
2013-11-23 00:28:00,64.3,61.9,30.16,NNW,338,0.0,0.0,92,0.00,,,0.00,WUHU216HW,2013-11-23 05:28:00,
2013-11-23 00:33:00,64.3,61.9,30.16,NNW,338,1.1,1.1,92,0.00,,,0.00,WUHU216HW,2013-11-23 05:33:00,
2013-11-23 00:38:00,64.1,62.1,30.16,NNW,338,0.4,1.1,93,0.00,,,0.00,WUHU216HW,2013-11-23 05:38:00,
2013-11-23 00:43:00,63.7,61.8,30.15,NNW,338,0.0,0.4,93,0.00,,,0.00,WUHU216HW,2013-11-23 05:43:00,
2013-11-23 00:48:00,63.5,61.2,30.15,NNW,338,0.0,0.4,92,0.00,,,0.00,WUHU216HW,2013-11-23 05:48:00,
2013-11-23 00:53:00,63.5,61.6,30.15,NW,315,0.0,0.9,93,0.00,,,0.00,WUHU216HW,2013-11-23 05:53:00,
2013-11-23 00:58:00,63.5,61.6,30.15,NW,315,0.0,0.9,93,0.00,,,0.00,WUHU216HW,2013-11-23 05:58:00,
2013-11-23 01:03:00,63.5,61.6,30.15,NW,315,0.0,0.0,93,0.00,,,0.00,WUHU216HW,2013-11-23 06:03:00,
2013-11-23 01:08:00,63.4,61.0,30.15,NW,315,0.0,0.0,92,0.00,,,0.00,WUHU216HW,2013-11-23 06:08:00,
2013-11-23 01:13:00,63.4,61.0,30.15,NW,315,0.0,0.0,92,0.00,,,0.00,WUHU216HW,2013-11-23 06:13:00,
2013-11-23 01:18:00,63.2,60.8,30.14,NW,315,0.0,0.0,92,0.00,,,0.00,WUHU216HW,2013-11-23 06:18:00,
2013-11-23 01:23:00,63.2,60.8,30.14,NW,315,0.0,0.0,92,0.00,,,0.00,WUHU216HW,2013-11-23 06:23:00,
2013-11-23 01:28:00,63.0,61.0,30.13,NW,315,0.0,0.0,93,0.00,,,0.00,WUHU216HW,2013-11-23 06:28:00,
2013-11-23 01:33:00,62.6,60.7,30.14,NW,315,0.0,0.0,93,0.00,,,0.00,WUHU216HW,2013-11-23 06:33:00,
2013-11-23 01:38:00,62.6,60.7,30.13,NW,315,0.0,0.0,93,0.00,,,0.00,WUHU216HW,2013-11-23 06:38:00,
2013-11-23 01:43:00,62.5,60.5,30.13,NW,315,0.0,0.0,93,0.00,,,0.00,WUHU216HW,2013-11-23 06:43:00,
2013-11-23 01:48:00,62.5,60.5,30.14,NW,315,0.0,0.0,93,0.00,,,0.00,WUHU216HW,2013-11-23 06:48:00,
2013-11-23 01:53:00,62.3,60.3,30.14,NW,315,0.0,0.0,93,0.00,,,0.00,WUHU216HW,2013-11-23 06:53:00,
2013-11-23 01:58:00,62.3,60.3,30.14,NW,315,0.0,0.0,93,0.00,,,0.00,WUHU216HW,2013-11-23 06:58:00,
2013-11-23 02:03:00,62.1,60.1,30.14,NW,315,0.0,0.0,93,0.00,,,0.00,WUHU216HW,2013-11-23 07:03:00,
2013-11-23 02:08:00,62.1,60.1,30.14,NW,315,0.0,0.0,93,0.00,,,0.00,WUHU216HW,2013-11-23 07:08:00,
2013-11-23 02:13:00,61.9,60.0,30.14,NW,315,0.0,0.0,93,0.00,,,0.00,WUHU216HW,2013-11-23 07:13:00,
2013-11-23 02:18:00,61.9,60.0,30.14,NW,315,0.0,0.0,93,0.00,,,0.00,WUHU216HW,2013-11-23 07:18:00,
2013-11-23 02:23:00,61.7,59.8,30.14,NW,315,0.0,0.0,93,0.00,,,0.00,WUHU216HW,2013-11-23 07:23:00,
2013-11-23 02:28:00,61.7,59.8,30.14,NW,315,0.0,0.0,93,0.00,,,0.00,WUHU216HW,2013-11-23 07:28:00,
2013-11-23 02:33:00,61.6,59.6,30.14,NW,315,0.0,0.0,93,0.00,,,0.00,WUHU216HW,2013-11-23 07:33:00,
2013-11-23 02:38:00,61.6,59.6,30.14,NW,315,0.0,0.0,93,0.00,,,0.00,WUHU216HW,2013-11-23 07:38:00,
2013-11-23 02:43:00,61.6,59.6,30.13,NW,315,0.0,0.0,93,0.00,,,0.00,WUHU216HW,2013-11-23 07:43:00,
2013-11-23 02:48:00,61.6,59.6,30.13,NW,315,0.9,0.9,93,0.00,,,0.00,WUHU216HW,2013-11-23 07:48:00,
2013-11-23 02:53:00,61.4,59.4,30.13,NW,315,0.0,0.9,93,0.00,,,0.00,WUHU216HW,2013-11-23 07:53:00,
2013-11-23 02:58:00,61.2,59.2,30.13,NW,315,0.0,0.7,93,0.00,,,0.00,WUHU216HW,2013-11-23 07:58:00,
2013-11-23 03:03:00,61.2,59.2,30.13,NW,315,0.0,0.0,93,0.00,,,0.00,WUHU216HW,2013-11-23 08:03:00,
2013-11-23 03:08:00,61.2,59.2,30.13,NW,315,0.0,0.0,93,0.00,,,0.00,WUHU216HW,2013-11-23 08:08:00,
2013-11-23 03:13:00,61.2,59.2,30.13,NW,315,0.0,0.9,93,0.00,,,0.00,WUHU216HW,2013-11-23 08:13:00,
2013-11-23 03:18:00,61.2,59.2,30.13,WNW,293,0.7,1.3,93,0.00,,,0.00,WUHU216HW,2013-11-23 08:18:00,
2013-11-23 03:23:00,61.2,59.2,30.12,SSE,158,1.1,1.3,93,0.00,,,0.00,WUHU216HW,2013-11-23 08:23:00,
2013-11-23 03:28:00,60.8,58.9,30.12,SSE,158,0.0,1.3,93,0.00,,,0.00,WUHU216HW,2013-11-23 08:28:00,
2013-11-23 03:33:00,60.8,58.9,30.12,SSE,158,0.0,0.9,93,0.00,,,0.00,WUHU216HW,2013-11-23 08:33:00,
2013-11-23 03:38:00,60.8,58.9,30.11,SSE,158,0.0,0.4,93,0.00,,,0.00,WUHU216HW,2013-11-23 08:38:00,
2013-11-23 03:43:00,60.7,58.7,30.11,SSE,158,0.0,0.4,93,0.00,,,0.00,WUHU216HW,2013-11-23 08:43:00,
2013-11-23 03:48:00,60.5,58.8,30.11,SSE,158,0.0,0.7,94,0.00,,,0.00,WUHU216HW,2013-11-23 08:48:00,
2013-11-23 03:53:00,60.5,58.8,30.11,SSE,158,0.0,0.7,94,0.00,,,0.00,WUHU216HW,2013-11-23 08:53:00,
2013-11-23 03:58:00,60.5,58.8,30.11,SSE,158,0.0,0.0,94,0.00,,,0.00,WUHU216HW,2013-11-23 08:58:00,
2013-11-23 04:03:00,60.5,58.8,30.11,SSE,158,0.0,0.0,94,0.00,,,0.00,WUHU216HW,2013-11-23 09:03:00,
2013-11-23 04:08:00,60.5,58.8,30.11,SSE,158,0.0,0.0,94,0.00,,,0.00,WUHU216HW,2013-11-23 09:08:00,
2013-11-23 04:13:00,60.5,58.8,30.11,SSE,158,0.0,0.0,94,0.00,,,0.00,WUHU216HW,2013-11-23 09:13:00,
2013-11-23 04:18:00,60.5,58.8,30.11,SSE,158,0.0,0.0,94,0.00,,,0.00,WUHU216HW,2013-11-23 09:18:00,
2013-11-23 04:23:00,60.3,58.6,30.11,SSE,158,0.0,0.0,94,0.00,,,0.00,WUHU216HW,2013-11-23 09:23:00,
2013-11-23 04:28:00,60.3,58.6,30.11,SSE,158,0.0,0.0,94,0.00,,,0.00,WUHU216HW,2013-11-23 09:28:00,
2013-11-23 04:33:00,60.3,58.3,30.11,SSE,158,0.0,0.0,93,0.00,,,0.00,WUHU216HW,2013-11-23 09:33:00,
2013-11-23 04:38:00,60.1,58.2,30.11,SSE,158,0.0,0.0,93,0.00,,,0.00,WUHU216HW,2013-11-23 09:38:00,
2013-11-23 04:43:00,60.1,58.2,30.11,SSW,203,0.0,0.2,93,0.00,,,0.00,WUHU216HW,2013-11-23 09:43:00,
2013-11-23 04:48:00,60.1,58.2,30.12,SSW,203,0.0,0.2,93,0.00,,,0.00,WUHU216HW,2013-11-23 09:48:00,
2013-11-23 04:53:00,59.9,58.0,30.11,SSW,203,0.0,0.0,93,0.00,,,0.00,WUHU216HW,2013-11-23 09:53:00,
2013-11-23 04:58:00,59.9,58.0,30.11,SSW,203,0.0,0.0,93,0.00,,,0.00,WUHU216HW,2013-11-23 09:58:00,
2013-11-23 05:03:00,59.8,57.8,30.11,SSW,203,0.0,0.0,93,0.00,,,0.00,WUHU216HW,2013-11-23 10:03:00,
2013-11-23 05:08:00,59.6,57.6,30.11,SSW,203,0.0,0.0,93,0.00,,,0.00,WUHU216HW,2013-11-23 10:08:00,
2013-11-23 05:13:00,59.4,57.4,30.11,SSW,203,0.0,0.0,93,0.00,,,0.00,WUHU216HW,2013-11-23 10:13:00,
2013-11-23 05:18:00,59.4,57.7,30.11,SSW,203,0.0,0.0,94,0.00,,,0.00,WUHU216HW,2013-11-23 10:18:00,
2013-11-23 05:23:00,59.4,57.7,30.11,SSW,203,0.0,0.0,94,0.00,,,0.00,WUHU216HW,2013-11-23 10:23:00,
2013-11-23 05:28:00,59.4,57.7,30.11,SSW,203,0.0,0.0,94,0.00,,,0.00,WUHU216HW,2013-11-23 10:28:00,
2013-11-23 05:33:00,59.2,57.5,30.11,SSW,203,0.0,0.0,94,0.00,,,0.00,WUHU216HW,2013-11-23 10:33:00,
2013-11-23 05:38:00,59.0,57.3,30.11,SSW,203,0.0,0.0,94,0.00,,,0.00,WUHU216HW,2013-11-23 10:38:00,
2013-11-23 05:43:00,59.0,57.3,30.11,SSW,203,0.0,0.0,94,0.00,,,0.00,WUHU216HW,2013-11-23 10:43:00,
2013-11-23 05:48:00,59.0,57.1,30.11,SSW,203,0.0,0.0,93,0.00,,,0.00,WUHU216HW,2013-11-23 10:48:00,
2013-11-23 05:53:00,58.9,56.9,30.11,SSW,203,0.0,0.0,93,0.00,,,0.00,WUHU216HW,2013-11-23 10:53:00,
2013-11-23 05:58:00,58.9,56.9,30.11,SSW,203,0.0,0.0,93,0.00,,,0.00,WUHU216HW,2013-11-23 10:58:00,
2013-11-23 06:03:00,58.7,56.7,30.11,SSW,203,0.4,0.4,93,0.00,,,0.00,WUHU216HW,2013-11-23 11:03:00,
2013-11-23 06:08:00,58.5,56.5,30.11,SSW,203,0.4,0.4,93,0.00,,,0.00,WUHU216HW,2013-11-23 11:08:00,
2013-11-23 06:13:00,58.5,56.5,30.11,SSW,203,0.0,0.4,93,0.00,,,0.00,WUHU216HW,2013-11-23 11:13:00,
2013-11-23 06:18:00,58.5,56.5,30.11,SSW,203,0.0,0.0,93,0.00,,,0.00,WUHU216HW,2013-11-23 11:18:00,
2013-11-23 06:23:00,58.7,56.7,30.11,SSW,203,0.0,0.0,93,0.00,,,0.00,WUHU216HW,2013-11-23 11:23:00,
2013-11-23 06:28:00,58.7,56.7,30.11,SSW,203,0.0,0.0,93,0.00,,,0.00,WUHU216HW,2013-11-23 11:28:00,
2013-11-23 06:33:00,58.7,56.7,30.11,SSW,203,0.0,0.0,93,0.00,,,0.00,WUHU216HW,2013-11-23 11:33:00,
2013-11-23 06:38:00,58.7,57.0,30.12,SSW,203,0.0,0.0,94,0.00,,,0.00,WUHU216HW,2013-11-23 11:38:00,
2013-11-23 06:43:00,58.7,57.0,30.12,WNW,293,0.0,0.0,94,0.00,,,0.00,WUHU216HW,2013-11-23 11:43:00,
2013-11-23 06:49:00,58.7,57.0,30.12,WNW,293,0.0,0.0,94,0.00,,,0.00,WUHU216HW,2013-11-23 11:49:00,
2013-11-23 06:54:00,58.7,57.0,30.12,WNW,293,0.0,0.0,94,0.00,,,0.00,WUHU216HW,2013-11-23 11:54:00,
2013-11-23 06:59:00,58.7,57.0,30.12,WNW,293,0.0,0.0,94,0.00,,,0.00,WUHU216HW,2013-11-23 11:59:00,
2013-11-23 07:04:00,58.7,56.7,30.12,WNW,293,0.0,0.0,93,0.00,,,0.00,WUHU216HW,2013-11-23 12:04:00,
2013-11-23 07:09:00,58.7,57.0,30.12,WNW,293,0.0,0.0,94,0.00,,,0.00,WUHU216HW,2013-11-23 12:09:00,
2013-11-23 07:14:00,58.7,56.7,30.12,WNW,293,0.0,0.0,93,0.00,,,0.00,WUHU216HW,2013-11-23 12:14:00,
2013-11-23 07:19:00,58.7,56.7,30.12,WNW,293,0.0,0.0,93,0.00,,,0.00,WUHU216HW,2013-11-23 12:19:00,
2013-11-23 07:24:00,58.5,56.5,30.12,WNW,293,0.0,0.0,93,0.00,,,0.00,WUHU216HW,2013-11-23 12:24:00,
2013-11-23 07:29:00,58.5,56.8,30.12,WNW,293,0.0,0.0,94,0.00,,,0.00,WUHU216HW,2013-11-23 12:29:00,
2013-11-23 07:34:00,58.7,57.0,30.12,WNW,293,0.0,0.0,94,0.00,,,0.00,WUHU216HW,2013-11-23 12:34:00,
2013-11-23 07:39:00,58.7,57.0,30.12,WNW,293,0.0,0.0,94,0.00,,,0.00,WUHU216HW,2013-11-23 12:39:00,
2013-11-23 07:44:00,58.9,57.2,30.12,WNW,293,0.0,0.0,94,0.00,,,0.00,WUHU216HW,2013-11-23 12:44:00,
2013-11-23 07:49:00,59.2,57.5,30.13,WNW,293,0.0,0.0,94,0.00,,,0.00,WUHU216HW,2013-11-23 12:49:00,
2013-11-23 07:54:00,59.4,57.4,30.13,WNW,293,0.0,0.0,93,0.00,,,0.00,WUHU216HW,2013-11-23 12:54:00,
2013-11-23 07:59:00,59.6,57.6,30.13,WNW,293,0.0,0.0,93,0.00,,,0.00,WUHU216HW,2013-11-23 12:59:00,
2013-11-23 08:04:00,60.1,58.4,30.13,WNW,293,0.0,0.0,94,0.00,,,0.00,WUHU216HW,2013-11-23 13:04:00,
2013-11-23 08:09:00,60.5,58.8,30.13,WNW,293,0.0,0.0,94,0.00,,,0.00,WUHU216HW,2013-11-23 13:09:00,
2013-11-23 08:14:00,60.8,59.1,30.13,WNW,293,0.0,0.0,94,0.00,,,0.00,WUHU216HW,2013-11-23 13:14:00,
2013-11-23 08:19:00,61.2,59.5,30.13,WNW,293,0.0,0.0,94,0.00,,,0.00,WUHU216HW,2013-11-23 13:19:00,
2013-11-23 08:24:00,61.6,59.6,30.13,WNW,293,0.0,0.0,93,0.00,,,0.00,WUHU216HW,2013-11-23 13:24:00,
2013-11-23 08:29:00,61.7,59.8,30.13,WSW,248,0.0,0.0,93,0.00,,,0.00,WUHU216HW,2013-11-23 13:29:00,
2013-11-23 08:34:00,62.3,60.3,30.13,WSW,248,0.0,0.0,93,0.00,,,0.00,WUHU216HW,2013-11-23 13:34:00,
2013-11-23 08:39:00,63.0,61.0,30.13,WSW,248,0.9,0.9,93,0.00,,,0.00,WUHU216HW,2013-11-23 13:39:00,
2013-11-23 08:44:00,63.7,61.8,30.13,WSW,248,1.8,1.8,93,0.00,,,0.00,WUHU216HW,2013-11-23 13:44:00,
2013-11-23 08:49:00,64.4,62.5,30.13,WSW,248,2.2,2.5,93,0.00,,,0.00,WUHU216HW,2013-11-23 13:49:00,
2013-11-23 08:54:00,64.8,62.7,30.13,West,270,1.3,2.5,93,0.00,,,0.00,WUHU216HW,2013-11-23 13:54:00,
2013-11-23 08:59:00,65.3,63.3,30.13,WSW,248,1.1,1.8,93,0.00,,,0.00,WUHU216HW,2013-11-23 13:59:00,
2013-11-23 09:04:00,65.9,63.7,30.13,WSW,248,2.0,2.2,93,0.00,,,0.00,WUHU216HW,2013-11-23 14:04:00,
2013-11-23 09:09:00,66.2,64.5,30.13,West,270,0.4,2.2,94,0.00,,,0.00,WUHU216HW,2013-11-23 14:09:00,
2013-11-23 09:14:00,66.8,64.6,30.13,NNW,338,0.4,1.8,93,0.00,,,0.00,WUHU216HW,2013-11-23 14:14:00,
2013-11-23 09:19:00,67.3,65.2,30.13,West,270,0.9,1.1,93,0.00,,,0.00,WUHU216HW,2013-11-23 14:19:00,
2013-11-23 09:24:00,67.7,65.3,30.13,NNW,338,0.4,1.1,92,0.00,,,0.00,WUHU216HW,2013-11-23 14:24:00,
2013-11-23 09:29:00,68.2,65.8,30.13,WSW,248,1.6,1.6,92,0.00,,,0.00,WUHU216HW,2013-11-23 14:29:00,
2013-11-23 09:34:00,68.9,66.2,30.13,NNW,338,0.7,1.6,91,0.00,,,0.00,WUHU216HW,2013-11-23 14:34:00,
2013-11-23 09:39:00,70.7,68.0,30.13,North,0,1.6,2.2,91,0.00,,,0.00,WUHU216HW,2013-11-23 14:39:00,
2013-11-23 09:44:00,74.5,71.1,30.13,WSW,248,1.6,2.2,89,0.00,,,0.00,WUHU216HW,2013-11-23 14:44:00,
2013-11-23 09:49:00,77.9,71.6,30.13,SW,225,2.2,3.4,81,0.00,,,0.00,WUHU216HW,2013-11-23 14:49:00,
2013-11-23 09:54:00,79.9,72.5,30.13,West,270,3.8,3.8,78,0.00,,,0.00,WUHU216HW,2013-11-23 14:54:00,
2013-11-23 09:59:00,81.7,72.6,30.13,West,270,3.6,4.5,74,0.00,,,0.00,WUHU216HW,2013-11-23 14:59:00,
2013-11-23 10:04:00,83.0,73.5,30.13,WSW,248,2.0,4.5,73,0.00,,,0.00,WUHU216HW,2013-11-23 15:04:00,
2013-11-23 10:09:00,84.6,73.4,30.13,WSW,248,2.0,4.3,69,0.00,,,0.00,WUHU216HW,2013-11-23 15:09:00,
2013-11-23 10:14:00,86.2,74.4,30.13,North,0,0.7,4.3,68,0.00,,,0.00,WUHU216HW,2013-11-23 15:14:00,
2013-11-23 10:19:00,87.8,75.1,30.13,NW,315,1.3,2.2,66,0.00,,,0.00,WUHU216HW,2013-11-23 15:19:00,
2013-11-23 10:24:00,87.5,73.4,30.13,West,270,5.1,5.1,63,0.00,,,0.00,WUHU216HW,2013-11-23 15:24:00,
2013-11-23 10:29:00,88.2,73.2,30.13,North,0,1.8,5.1,61,0.00,,,0.00,WUHU216HW,2013-11-23 15:29:00,
2013-11-23 10:34:00,86.9,69.8,30.13,West,270,4.3,4.5,57,0.00,,,0.00,WUHU216HW,2013-11-23 15:34:00,
2013-11-23 10:39:00,85.7,68.7,30.13,West,270,3.4,5.4,57,0.00,,,0.00,WUHU216HW,2013-11-23 15:39:00,
2013-11-23 10:44:00,85.3,69.9,30.12,WSW,248,3.1,5.4,60,0.00,,,0.00,WUHU216HW,2013-11-23 15:44:00,
2013-11-23 10:49:00,84.2,69.4,30.12,West,270,1.1,5.4,61,0.00,,,0.00,WUHU216HW,2013-11-23 15:49:00,
2013-11-23 10:54:00,85.3,69.4,30.12,WSW,248,5.8,6.0,59,0.00,,,0.00,WUHU216HW,2013-11-23 15:54:00,
2013-11-23 10:59:00,84.6,68.2,30.11,NW,315,3.8,6.0,58,0.00,,,0.00,WUHU216HW,2013-11-23 15:59:00,
2013-11-23 11:04:00,85.0,68.1,30.11,West,270,4.9,4.9,57,0.00,,,0.00,WUHU216HW,2013-11-23 16:04:00,
2013-11-23 11:09:00,84.2,67.9,30.11,WSW,248,3.1,5.4,58,0.00,,,0.00,WUHU216HW,2013-11-23 16:09:00,
2013-11-23 11:14:00,84.4,69.6,30.11,SW,225,1.8,5.4,61,0.00,,,0.00,WUHU216HW,2013-11-23 16:14:00,
2013-11-23 11:19:00,84.6,68.8,30.11,NNW,338,2.5,3.4,59,0.00,,,0.00,WUHU216HW,2013-11-23 16:19:00,
2013-11-23 11:24:00,83.7,68.9,30.11,WSW,248,1.1,4.3,61,0.00,,,0.00,WUHU216HW,2013-11-23 16:24:00,
2013-11-23 11:29:00,81.7,66.5,30.10,WSW,248,2.2,6.0,60,0.00,,,0.00,WUHU216HW,2013-11-23 16:29:00,
2013-11-23 11:34:00,80.3,66.1,30.10,WNW,293,2.7,6.0,62,0.00,,,0.00,WUHU216HW,2013-11-23 16:34:00,
2013-11-23 11:39:00,79.6,66.3,30.10,WNW,293,1.1,4.0,64,0.00,,,0.00,WUHU216HW,2013-11-23 16:39:00,
2013-11-23 11:44:00,79.6,66.8,30.10,WSW,248,2.5,4.7,65,0.00,,,0.00,WUHU216HW,2013-11-23 16:44:00,
2013-11-23 11:49:00,79.4,67.1,30.10,WSW,248,1.6,4.7,66,0.00,,,0.00,WUHU216HW,2013-11-23 16:49:00,
2013-11-23 11:54:00,78.8,66.5,30.09,WNW,293,3.6,6.5,66,0.00,,,0.00,WUHU216HW,2013-11-23 16:54:00,
2013-11-23 11:59:00,78.8,66.5,30.09,NNW,338,1.3,7.4,66,0.00,,,0.00,WUHU216HW,2013-11-23 16:59:00,
2013-11-23 12:04:00,78.8,67.0,30.08,ESE,113,1.1,7.4,67,0.00,,,0.00,WUHU216HW,2013-11-23 17:04:00,
2013-11-23 12:09:00,79.0,67.2,30.08,North,0,1.6,4.7,67,0.00,,,0.00,WUHU216HW,2013-11-23 17:09:00,
2013-11-23 12:14:00,79.2,66.9,30.08,NW,315,1.1,4.9,66,0.00,,,0.00,WUHU216HW,2013-11-23 17:14:00,
2013-11-23 12:19:00,79.4,67.1,30.07,West,270,5.4,5.4,66,0.00,,,0.00,WUHU216HW,2013-11-23 17:19:00,
2013-11-23 12:24:00,79.7,67.3,30.07,NW,315,1.8,8.3,66,0.00,,,0.00,WUHU216HW,2013-11-23 17:24:00,
2013-11-23 12:29:00,79.4,67.1,30.06,SW,225,3.1,8.3,66,0.00,,,0.00,WUHU216HW,2013-11-23 17:29:00,
2013-11-23 12:34:00,79.2,66.9,30.06,SW,225,4.0,4.0,66,0.00,,,0.00,WUHU216HW,2013-11-23 17:34:00,
2013-11-23 12:39:00,79.0,66.7,30.06,WSW,248,2.5,4.0,66,0.00,,,0.00,WUHU216HW,2013-11-23 17:39:00,
2013-11-23 12:44:00,79.4,67.1,30.06,West,270,3.6,5.8,66,0.00,,,0.00,WUHU216HW,2013-11-23 17:44:00,
2013-11-23 12:49:00,79.6,67.6,30.05,WNW,293,0.9,5.8,67,0.00,,,0.00,WUHU216HW,2013-11-23 17:49:00,
2013-11-23 12:54:00,79.4,67.4,30.05,NW,315,1.1,2.2,67,0.00,,,0.00,WUHU216HW,2013-11-23 17:54:00,
2013-11-23 12:59:00,79.0,67.2,30.05,North,0,1.1,4.3,67,0.00,,,0.00,WUHU216HW,2013-11-23 17:59:00,
2013-11-23 13:04:00,78.8,67.3,30.05,NW,315,0.4,4.3,68,0.00,,,0.00,WUHU216HW,2013-11-23 18:04:00,
2013-11-23 13:09:00,78.5,67.1,30.05,NNW,338,0.9,4.5,68,0.00,,,0.00,WUHU216HW,2013-11-23 18:09:00,
2013-11-23 13:14:00,78.5,67.5,30.04,West,270,4.7,6.7,69,0.00,,,0.00,WUHU216HW,2013-11-23 18:14:00,
2013-11-23 13:19:00,78.1,67.2,30.04,SSW,203,3.4,6.7,69,0.00,,,0.00,WUHU216HW,2013-11-23 18:19:00,
2013-11-23 13:24:00,77.9,67.4,30.04,SSE,158,0.4,4.0,70,0.00,,,0.00,WUHU216HW,2013-11-23 18:24:00,
2013-11-23 13:29:00,77.8,67.2,30.04,NNW,338,1.8,3.4,70,0.00,,,0.00,WUHU216HW,2013-11-23 18:29:00,
2013-11-23 13:34:00,77.4,67.3,30.04,NW,315,1.1,3.6,71,0.00,,,0.00,WUHU216HW,2013-11-23 18:34:00,
2013-11-23 13:39:00,77.6,67.5,30.03,NW,315,3.1,3.6,71,0.00,,,0.00,WUHU216HW,2013-11-23 18:39:00,
2013-11-23 13:44:00,77.8,67.6,30.03,West,270,3.1,3.1,71,0.00,,,0.00,WUHU216HW,2013-11-23 18:44:00,
2013-11-23 13:49:00,77.9,67.8,30.03,WNW,293,2.5,3.6,71,0.00,,,0.00,WUHU216HW,2013-11-23 18:49:00,
2013-11-23 13:54:00,77.9,67.8,30.03,NW,315,2.7,4.5,71,0.00,,,0.00,WUHU216HW,2013-11-23 18:54:00,
2013-11-23 13:59:00,77.9,67.8,30.03,NNE,23,1.6,4.7,71,0.00,,,0.00,WUHU216HW,2013-11-23 18:59:00,
2013-11-23 14:04:00,77.8,67.6,30.03,NNE,23,1.1,4.7,71,0.00,,,0.00,WUHU216HW,2013-11-23 19:04:00,
2013-11-23 14:09:00,77.6,67.9,30.03,North,0,1.1,2.0,72,0.00,,,0.00,WUHU216HW,2013-11-23 19:09:00,
2013-11-23 14:14:00,77.6,67.9,30.03,West,270,5.6,5.6,72,0.00,,,0.00,WUHU216HW,2013-11-23 19:14:00,
2013-11-23 14:19:00,77.8,68.1,30.03,West,270,1.8,5.6,72,0.00,,,0.00,WUHU216HW,2013-11-23 19:19:00,
2013-11-23 14:24:00,77.4,67.3,30.03,SSW,203,4.5,7.8,71,0.00,,,0.00,WUHU216HW,2013-11-23 19:24:00,
2013-11-23 14:29:00,77.0,67.3,30.03,WSW,248,1.8,7.8,72,0.00,,,0.00,WUHU216HW,2013-11-23 19:29:00,
2013-11-23 14:34:00,76.7,67.4,30.03,NW,315,1.3,5.4,73,0.00,,,0.00,WUHU216HW,2013-11-23 19:34:00,
2013-11-23 14:39:00,76.0,67.5,30.03,WSW,248,1.8,5.4,75,0.00,,,0.00,WUHU216HW,2013-11-23 19:39:00,
2013-11-23 14:44:00,75.4,67.0,30.03,NNE,23,1.1,4.7,75,0.00,,,0.00,WUHU216HW,2013-11-23 19:44:00,
2013-11-23 14:49:00,74.9,66.9,30.04,West,270,0.2,3.8,76,0.00,,,0.00,WUHU216HW,2013-11-23 19:49:00,
2013-11-23 14:54:00,74.3,67.1,30.03,SW,225,2.5,3.8,78,0.00,,,0.00,WUHU216HW,2013-11-23 19:54:00,
2013-11-23 14:59:00,73.8,66.6,30.03,West,270,2.2,2.9,78,0.00,,,0.00,WUHU216HW,2013-11-23 19:59:00,
2013-11-23 15:04:00,73.4,66.6,30.03,West,270,1.1,2.9,79,0.00,,,0.00,WUHU216HW,2013-11-23 20:04:00,
2013-11-23 15:09:00,73.4,67.0,30.03,NNW,338,1.1,3.4,80,0.00,,,0.00,WUHU216HW,2013-11-23 20:09:00,
2013-11-23 15:14:00,73.4,67.3,30.03,WNW,293,1.6,4.0,81,0.00,,,0.00,WUHU216HW,2013-11-23 20:14:00,
2013-11-23 15:19:00,73.4,67.3,30.03,West,270,1.8,4.0,81,0.00,,,0.00,WUHU216HW,2013-11-23 20:19:00,
2013-11-23 15:24:00,73.4,67.3,30.03,West,270,3.4,3.4,81,0.00,,,0.00,WUHU216HW,2013-11-23 20:24:00,
2013-11-23 15:29:00,73.4,67.3,30.03,SE,135,1.1,3.4,81,0.00,,,0.00,WUHU216HW,2013-11-23 20:29:00,
2013-11-23 15:34:00,73.3,67.2,30.03,WNW,293,0.4,3.4,81,0.00,,,0.00,WUHU216HW,2013-11-23 20:34:00,
2013-11-23 15:39:00,73.1,67.0,30.03,NNW,338,0.9,3.4,81,0.00,,,0.00,WUHU216HW,2013-11-23 20:39:00,
2013-11-23 15:44:00,73.1,67.3,30.04,ENE,68,1.6,2.5,82,0.00,,,0.00,WUHU216HW,2013-11-23 20:44:00,
2013-11-23 15:49:00,73.1,67.3,30.03,NE,45,0.0,1.8,82,0.00,,,0.00,WUHU216HW,2013-11-23 20:49:00,
2013-11-23 15:54:00,73.1,67.6,30.04,ESE,113,0.7,1.3,83,0.00,,,0.00,WUHU216HW,2013-11-23 20:54:00,
2013-11-23 15:59:00,72.7,67.2,30.04,North,0,0.0,1.1,83,0.00,,,0.00,WUHU216HW,2013-11-23 20:59:00,
2013-11-23 16:04:00,72.7,67.2,30.04,NNW,338,0.7,1.1,83,0.00,,,0.00,WUHU216HW,2013-11-23 21:04:00,
2013-11-23 16:09:00,72.7,67.2,30.04,NNE,23,0.0,1.3,83,0.00,,,0.00,WUHU216HW,2013-11-23 21:09:00,
2013-11-23 16:14:00,72.5,67.1,30.04,SW,225,4.0,4.0,83,0.00,,,0.00,WUHU216HW,2013-11-23 21:14:00,
2013-11-23 16:19:00,72.2,66.7,30.04,North,0,0.4,4.0,83,0.00,,,0.00,WUHU216HW,2013-11-23 21:19:00,
2013-11-23 16:24:00,71.8,66.7,30.04,NNW,338,0.4,1.3,84,0.00,,,0.00,WUHU216HW,2013-11-23 21:24:00,
2013-11-23 16:29:00,71.6,66.5,30.05,North,0,0.4,1.3,84,0.00,,,0.00,WUHU216HW,2013-11-23 21:29:00,
2013-11-23 16:34:00,71.5,66.3,30.05,North,0,0.4,1.3,84,0.00,,,0.00,WUHU216HW,2013-11-23 21:34:00,
2013-11-23 16:39:00,71.3,66.2,30.05,North,0,0.4,1.6,84,0.00,,,0.00,WUHU216HW,2013-11-23 21:39:00,
2013-11-23 16:44:00,71.3,66.2,30.05,NNW,338,0.7,1.6,84,0.00,,,0.00,WUHU216HW,2013-11-23 21:44:00,
2013-11-23 16:49:00,70.9,65.4,30.05,North,0,1.8,2.0,83,0.00,,,0.00,WUHU216HW,2013-11-23 21:49:00,
2013-11-23 16:54:00,70.7,65.3,30.05,North,0,0.7,2.0,83,0.00,,,0.00,WUHU216HW,2013-11-23 21:54:00,
2013-11-23 16:59:00,70.7,65.3,30.05,NW,315,0.7,2.2,83,0.00,,,0.00,WUHU216HW,2013-11-23 21:59:00,
2013-11-23 17:04:00,70.6,65.1,30.05,North,0,1.8,2.2,83,0.00,,,0.00,WUHU216HW,2013-11-23 22:04:00,
2013-11-23 17:09:00,70.4,64.9,30.05,North,0,0.0,1.8,83,0.00,,,0.00,WUHU216HW,2013-11-23 22:09:00,
2013-11-23 17:14:00,70.2,64.5,30.05,North,0,0.0,1.6,82,0.00,,,0.00,WUHU216HW,2013-11-23 22:14:00,
2013-11-23 17:19:00,70.2,64.5,30.05,North,0,0.0,0.4,82,0.00,,,0.00,WUHU216HW,2013-11-23 22:19:00,
2013-11-23 17:24:00,70.0,64.3,30.05,NNE,23,1.1,1.1,82,0.00,,,0.00,WUHU216HW,2013-11-23 22:24:00,
2013-11-23 17:29:00,69.8,64.1,30.05,NNE,23,0.0,1.1,82,0.00,,,0.00,WUHU216HW,2013-11-23 22:29:00,
2013-11-23 17:34:00,69.5,64.1,30.05,NNE,23,0.2,0.9,83,0.00,,,0.00,WUHU216HW,2013-11-23 22:34:00,
2013-11-23 17:39:00,69.5,64.1,30.05,NNE,23,0.0,0.9,83,0.00,,,0.00,WUHU216HW,2013-11-23 22:39:00,
2013-11-23 17:44:00,69.3,63.9,30.06,NNE,23,0.2,0.4,83,0.00,,,0.00,WUHU216HW,2013-11-23 22:44:00,
2013-11-23 17:49:00,69.1,63.7,30.06,NNE,23,0.4,0.7,83,0.00,,,0.00,WUHU216HW,2013-11-23 22:49:00,
2013-11-23 17:54:00,68.9,63.5,30.06,NNE,23,1.1,1.3,83,0.00,,,0.00,WUHU216HW,2013-11-23 22:54:00,
2013-11-23 17:59:00,68.8,63.4,30.06,NNE,23,0.7,1.3,83,0.00,,,0.00,WUHU216HW,2013-11-23 22:59:00,
2013-11-23 18:04:00,68.8,63.4,30.06,North,0,0.0,0.9,83,0.00,,,0.00,WUHU216HW,2013-11-23 23:04:00,
2013-11-23 18:09:00,68.8,63.4,30.06,NNE,23,0.4,1.6,83,0.00,,,0.00,WUHU216HW,2013-11-23 23:09:00,
2013-11-23 18:14:00,68.6,63.5,30.06,North,0,0.9,1.6,84,0.00,,,0.00,WUHU216HW,2013-11-23 23:14:00,
2013-11-23 18:19:00,68.4,63.4,30.07,East,90,0.7,2.5,84,0.00,,,0.00,WUHU216HW,2013-11-23 23:19:00,
2013-11-23 18:24:00,68.4,63.4,30.07,SE,135,1.8,2.5,84,0.00,,,0.00,WUHU216HW,2013-11-23 23:24:00,
2013-11-23 18:29:00,68.2,63.2,30.07,ESE,113,1.1,2.5,84,0.00,,,0.00,WUHU216HW,2013-11-23 23:29:00,
2013-11-23 18:34:00,68.0,63.0,30.07,North,0,0.4,2.5,84,0.00,,,0.00,WUHU216HW,2013-11-23 23:34:00,
2013-11-23 18:39:00,68.0,63.0,30.08,NW,315,1.6,1.6,84,0.00,,,0.00,WUHU216HW,2013-11-23 23:39:00,
2013-11-23 18:44:00,67.9,62.8,30.08,North,0,1.6,1.6,84,0.00,,,0.00,WUHU216HW,2013-11-23 23:44:00,
2013-11-23 18:49:00,67.7,62.6,30.08,NE,45,0.9,2.9,84,0.00,,,0.00,WUHU216HW,2013-11-23 23:49:00,
2013-11-23 18:54:00,67.5,62.5,30.08,North,0,1.3,2.9,84,0.00,,,0.00,WUHU216HW,2013-11-23 23:54:00,
2013-11-23 18:59:00,67.3,62.3,30.08,North,0,0.0,1.6,84,0.00,,,0.00,WUHU216HW,2013-11-23 23:59:00,
2013-11-23 19:04:00,67.1,62.1,30.08,North,0,0.0,1.3,84,0.00,,,0.00,WUHU216HW,2013-11-24 00:04:00,
2013-11-23 19:09:00,67.0,61.9,30.08,North,0,1.1,1.3,84,0.00,,,0.00,WUHU216HW,2013-11-24 00:09:00,
2013-11-23 19:14:00,67.0,61.9,30.08,NNE,23,0.4,1.1,84,0.00,,,0.00,WUHU216HW,2013-11-24 00:14:00,
2013-11-23 19:19:00,66.8,61.7,30.08,North,0,1.1,1.1,84,0.00,,,0.00,WUHU216HW,2013-11-24 00:19:00,
2013-11-23 19:24:00,66.6,61.6,30.08,North,0,0.4,1.1,84,0.00,,,0.00,WUHU216HW,2013-11-24 00:24:00,
2013-11-23 19:29:00,66.6,61.6,30.08,ENE,68,1.3,1.3,84,0.00,,,0.00,WUHU216HW,2013-11-24 00:29:00,
2013-11-23 19:34:00,66.4,61.4,30.08,North,0,0.2,1.3,84,0.00,,,0.00,WUHU216HW,2013-11-24 00:34:00,
2013-11-23 19:39:00,66.4,61.4,30.08,North,0,0.4,1.1,84,0.00,,,0.00,WUHU216HW,2013-11-24 00:39:00,
2013-11-23 19:44:00,66.2,61.2,30.08,North,0,0.0,1.1,84,0.00,,,0.00,WUHU216HW,2013-11-24 00:44:00,
2013-11-23 19:49:00,66.2,61.2,30.08,SSE,158,0.9,1.1,84,0.00,,,0.00,WUHU216HW,2013-11-24 00:49:00,
2013-11-23 19:54:00,66.1,61.0,30.08,SSE,158,0.4,1.1,84,0.00,,,0.00,WUHU216HW,2013-11-24 00:54:00,
2013-11-23 19:59:00,65.9,60.9,30.09,SSE,158,0.0,1.1,84,0.00,,,0.00,WUHU216HW,2013-11-24 00:59:00,
2013-11-23 20:04:00,65.9,60.9,30.09,SSE,158,0.0,0.4,84,0.00,,,0.00,WUHU216HW,2013-11-24 01:04:00,
2013-11-23 20:09:00,65.7,60.8,30.09,SSE,158,0.0,0.7,84,0.00,,,0.00,WUHU216HW,2013-11-24 01:09:00,
2013-11-23 20:14:00,65.5,60.6,30.09,SSE,158,0.0,0.7,84,0.00,,,0.00,WUHU216HW,2013-11-24 01:14:00,
2013-11-23 20:19:00,65.5,60.6,30.09,SSE,158,0.0,0.0,84,0.00,,,0.00,WUHU216HW,2013-11-24 01:19:00,
2013-11-23 20:24:00,65.3,60.4,30.09,SSE,158,0.0,1.1,84,0.00,,,0.00,WUHU216HW,2013-11-24 01:24:00,
2013-11-23 20:29:00,65.2,60.2,30.09,SSE,158,0.0,1.1,84,0.00,,,0.00,WUHU216HW,2013-11-24 01:29:00,
2013-11-23 20:34:00,65.2,60.6,30.09,SSE,158,0.0,0.7,85,0.00,,,0.00,WUHU216HW,2013-11-24 01:34:00,
2013-11-23 20:39:00,65.0,60.4,30.09,SSE,158,0.0,0.7,85,0.00,,,0.00,WUHU216HW,2013-11-24 01:39:00,
2013-11-23 20:44:00,64.8,60.2,30.09,SE,135,0.0,1.3,85,0.00,,,0.00,WUHU216HW,2013-11-24 01:44:00,
2013-11-23 20:49:00,64.8,60.2,30.09,ENE,68,0.0,1.3,85,0.00,,,0.00,WUHU216HW,2013-11-24 01:49:00,
2013-11-23 20:54:00,64.6,59.7,30.09,ENE,68,0.0,0.0,84,0.00,,,0.00,WUHU216HW,2013-11-24 01:54:00,
2013-11-23 20:59:00,64.6,59.7,30.10,ENE,68,0.0,0.0,84,0.00,,,0.00,WUHU216HW,2013-11-24 01:59:00,
2013-11-23 21:04:00,64.4,59.5,30.09,ENE,68,0.0,0.0,84,0.00,,,0.00,WUHU216HW,2013-11-24 02:04:00,
2013-11-23 21:09:00,64.4,59.5,30.09,ENE,68,0.0,0.0,84,0.00,,,0.00,WUHU216HW,2013-11-24 02:09:00,
2013-11-23 21:14:00,64.3,59.3,30.09,ENE,68,0.0,0.0,84,0.00,,,0.00,WUHU216HW,2013-11-24 02:14:00,
2013-11-23 21:19:00,64.1,59.5,30.10,ENE,68,0.0,0.0,85,0.00,,,0.00,WUHU216HW,2013-11-24 02:19:00,
2013-11-23 21:24:00,63.7,59.1,30.10,ENE,68,0.0,0.0,85,0.00,,,0.00,WUHU216HW,2013-11-24 02:24:00,
2013-11-23 21:29:00,63.7,59.1,30.10,ENE,68,0.0,0.0,85,0.00,,,0.00,WUHU216HW,2013-11-24 02:29:00,
2013-11-23 21:34:00,63.5,59.0,30.09,ENE,68,0.0,0.0,85,0.00,,,0.00,WUHU216HW,2013-11-24 02:34:00,
2013-11-23 21:39:00,63.4,58.8,30.10,ENE,68,0.0,0.0,85,0.00,,,0.00,WUHU216HW,2013-11-24 02:39:00,
2013-11-23 21:44:00,63.2,58.6,30.10,ENE,68,0.0,0.0,85,0.00,,,0.00,WUHU216HW,2013-11-24 02:44:00,
2013-11-23 21:49:00,63.0,58.4,30.10,ENE,68,0.0,0.0,85,0.00,,,0.00,WUHU216HW,2013-11-24 02:49:00,
2013-11-23 21:54:00,62.8,58.2,30.10,ENE,68,0.0,0.0,85,0.00,,,0.00,WUHU216HW,2013-11-24 02:54:00,
2013-11-23 21:59:00,62.5,58.2,30.10,ENE,68,0.0,0.0,86,0.00,,,0.00,WUHU216HW,2013-11-24 02:59:00,
2013-11-23 22:04:00,62.3,58.1,30.10,ENE,68,0.0,0.0,86,0.00,,,0.00,WUHU216HW,2013-11-24 03:04:00,
2013-11-23 22:09:00,62.3,58.1,30.10,ENE,68,0.0,0.0,86,0.00,,,0.00,WUHU216HW,2013-11-24 03:09:00,
2013-11-23 22:14:00,62.1,57.9,30.10,ENE,68,0.0,0.0,86,0.00,,,0.00,WUHU216HW,2013-11-24 03:14:00,
2013-11-23 22:19:00,61.9,58.1,30.10,ENE,68,0.0,0.0,87,0.00,,,0.00,WUHU216HW,2013-11-24 03:19:00,
2013-11-23 22:24:00,61.7,57.9,30.10,ENE,68,0.0,0.0,87,0.00,,,0.00,WUHU216HW,2013-11-24 03:24:00,
2013-11-23 22:29:00,61.6,57.7,30.10,WNW,293,0.0,0.0,87,0.00,,,0.00,WUHU216HW,2013-11-24 03:29:00,
2013-11-23 22:34:00,61.4,57.5,30.10,West,270,0.0,0.0,87,0.00,,,0.00,WUHU216HW,2013-11-24 03:34:00,
2013-11-23 22:39:00,61.2,57.3,30.10,West,270,0.0,0.0,87,0.00,,,0.00,WUHU216HW,2013-11-24 03:39:00,
2013-11-23 22:44:00,61.0,57.2,30.10,West,270,0.0,0.0,87,0.00,,,0.00,WUHU216HW,2013-11-24 03:44:00,
2013-11-23 22:49:00,60.8,57.0,30.11,West,270,0.0,0.0,87,0.00,,,0.00,WUHU216HW,2013-11-24 03:49:00,
2013-11-23 22:54:00,60.8,57.3,30.11,West,270,0.7,0.7,88,0.00,,,0.00,WUHU216HW,2013-11-24 03:54:00,
2013-11-23 22:59:00,60.7,57.2,30.11,West,270,0.0,0.7,88,0.00,,,0.00,WUHU216HW,2013-11-24 03:59:00,
2013-11-23 23:04:00,60.5,57.0,30.11,West,270,0.0,0.4,88,0.00,,,0.00,WUHU216HW,2013-11-24 04:04:00,
2013-11-23 23:09:00,60.5,57.0,30.11,West,270,0.0,0.0,88,0.00,,,0.00,WUHU216HW,2013-11-24 04:09:00,
2013-11-23 23:14:00,60.3,56.8,30.11,South,180,0.4,0.4,88,0.00,,,0.00,WUHU216HW,2013-11-24 04:14:00,
2013-11-23 23:19:00,60.1,56.6,30.11,West,270,1.1,1.1,88,0.00,,,0.00,WUHU216HW,2013-11-24 04:19:00,
2013-11-23 23:24:00,60.1,56.6,30.12,NE,45,0.0,1.1,88,0.00,,,0.00,WUHU216HW,2013-11-24 04:24:00,
2013-11-23 23:29:00,60.1,56.6,30.11,WSW,248,0.4,0.4,88,0.00,,,0.00,WUHU216HW,2013-11-24 04:29:00,
2013-11-23 23:34:00,59.8,56.3,30.11,SW,225,0.2,1.1,88,0.00,,,0.00,WUHU216HW,2013-11-24 04:34:00,
2013-11-23 23:39:00,59.8,56.3,30.11,SW,225,0.0,1.1,88,0.00,,,0.00,WUHU216HW,2013-11-24 04:39:00,
2013-11-23 23:44:00,59.4,55.9,30.11,East,90,0.0,1.1,88,0.00,,,0.00,WUHU216HW,2013-11-24 04:44:00,
2013-11-23 23:49:00,59.4,55.9,30.11,East,90,0.0,1.1,88,0.00,,,0.00,WUHU216HW,2013-11-24 04:49:00,
2013-11-23 23:54:00,59.2,56.0,30.11,North,0,0.7,1.1,89,0.00,,,0.00,WUHU216HW,2013-11-24 04:54:00,
2013-11-23 23:59:00,59.0,55.8,30.11,North,0,0.4,1.1,89,0.00,,,0.00,WUHU216HW,2013-11-24 04:59:00,